Vorticity
7 8 8 9 8 8 7 7 7 8 9 10 10 11 12 13 13 12 12 12 12 11 11 10 10 9 8 8 7 7 8 8 8 8 8 8 8 8 8 7 7 7 6 6 6 6 5 5 5 5 5 5 5 5 5 5 6 6 6 6 6 7 8 8 8 8 8 8 8
7 8 8 9 9 8 8 7 7 7 8 10 11 11 11 12 12 11 11 11 11 11 10 10 9 8 7 7 7 7 7 8 8 8 8 8 8 7 7 7 6 6 6 6 6 6 5 5 5 5 6 6 5 5 5 6 6 6 7 7 7 8 8 8 9 9 9 9 10
7 8 8 9 9 9 8 7 6 7 7 8 9 10 10 11 11 10 10 10 10 10 9 9 8 7 7 7 7 7 8 8 8 8 8 8 7 7 7 6 6 6 6 6 6 6 6 6 6 6 6 6 5 5 6 7 6 6 7 8 9 9 8 8 9 10 10 9 9
8 8 9 9 10 9 8 7 6 6 6 7 7 8 8 8 9 9 8 8 8 8 9 8 8 7 7 7 8 8 8 8 8 8 8 7 7 6 6 6 6 6 6 6 6 6 6 6 6 6 6 6 6 6 7 8 8 7 7 9 10 9 9 9 9 9 9 8 8
8 8 9 10 10 10 8 7 6 6 6 6 6 6 7 7 7 7 7 7 8 8 8 8 8 8 8 8 8 8 8 8 8 8 8 7 7 6 6 6 6 6 6 6 6 6 6 6 7 7 7 7 6 7 7 9 8 8 9 9 8 8 9 9 9 8 8 7 7
8 9 10 10 10 10 9 8 6 6 5 5 5 5 5 6 6 6 7 7 7 7 7 8 8 8 8 9 9 9 9 8 8 8 7 7 6 6 6 6 6 6 6 6 6 6 7 7 7 7 7 8 7 8 8 9 9 10 10 9 8 8 8 8 8 8 7 7 7
8 9 10 11 11 10 10 8 7 6 4 4 4 4 5 5 6 6 7 7 7 7 8 8 8 8 8 8 8 8 8 8 8 7 7 7 6 6 6 6 6 6 6 6 7 7 7 8 8 9 9 8 9 9 9 9 9 10 10 9 9 8 8 8 8 8 7 7 7
9 10 10 11 11 11 10 9 7 6 4 4 4 4 5 5 6 6 7 7 8 8 8 8 8 8 8 8 8 8 8 8 7 7 7 7 7 6 6 6 7 7 7 7 8 8 8 9 9 10 10 10 10 10 9 9 9 9 9 9 9 8 7 8 8 7 7 7 7
9 10 11 11 12 11 11 10 8 6 5 4 4 4 4 5 6 7 7 8 8 8 8 8 8 8 8 8 8 8 8 8 7 7 7 7 7 7 7 8 8 8 8 8 8 9 9 10 10 10 10 10 10 10 10 9 8 8 8 8 9 8 7 7 7 7 7 7 7
10 10 11 11 12 12 11 10 9 7 6 5 5 5 5 6 6 7 8 8 8 8 8 8 8 7 7 8 8 7 8 8 8 8 8 8 8 8 8 9 9 9 9 9 9 9 10 10 10 10 10 10 10 10 10 8 7 7 7 7 8 8 8 7 7 7 7 7 8
10 11 11 11 11 12 11 11 10 9 7 6 6 6 6 6 7 7 8 8 8 8 8 8 7 7 7 7 7 7 7 8 8 8 9 9 9 9 9 10 10 10 10 10 10 10 10 10 10 10 10 10 9 9 9 8 6 6 7 7 7 8 8 8 8 8 8 8 8
11 11 12 12 12 12 12 12 11 10 9 8 7 7 7 7 7 8 8 8 8 8 8 8 8 7 7 7 7 7 8 8 8 9 9 9 10 10 10 10 10 10 10 10 10 10 10 10 10 10 10 10 8 8 8 8 6 6 7 8 8 8 8 9 9 8 8 8 8
12 12 12 12 12 13 12 12 11 10 10 9 8 8 8 8 8 8 8 8 8 8 8 8 8 8 7 7 7 8 8 8 8 8 9 9 9 9 10 10 10 10 10 10 10 10 9 10 9 9 9 9 8 7 7 7 7 7 8 9 9 9 9 10 9 9 9 8 8
12 12 13 13 13 13 13 12 12 11 10 10 9 8 8 8 8 8 7 7 8 8 8 8 8 8 8 8 8 8 8 8 8 8 8 8 8 8 9 9 9 9 9 9 9 9 9 9 8 8 8 9 8 8 7 7 8 8 9 10 10 10 10 10 10 9 8 8 7
13 13 13 13 13 13 13 12 11 11 10 10 9 9 8 8 8 7 7 7 7 8 8 8 8 8 8 8 8 8 8 7 7 7 7 8 8 8 8 8 8 8 8 8 8 8 8 8 8 8 8 8 9 9 9 8 9 10 10 10 11 11 10 10 9 9 8 8 7
14 13 13 13 13 13 12 12 11 10 10 9 9 8 8 7 7 7 6 7 7 7 7 7 7 7 7 7 7 7 7 7 7 7 7 7 7 7 7 7 7 7 8 8 8 8 8 7 8 8 8 9 10 10 10 10 10 10 11 11 11 10 10 10 9 8 8 7 7
13 13 13 12 12 12 11 11 10 10 10 9 8 8 7 7 7 6 6 6 7 7 6 6 7 7 7 6 6 7 7 6 6 6 6 6 6 6 6 7 7 7 7 8 8 8 8 7 8 8 9 10 10 11 11 11 11 11 11 11 10 10 10 9 8 8 8 7 7
13 12 12 12 11 11 10 10 9 9 8 8 7 7 6 6 6 6 6 6 6 6 6 6 6 6 6 6 6 6 6 6 6 6 6 6 6 6 6 7 7 7 8 8 8 8 8 8 8 9 10 11 12 12 12 12 12 12 11 11 10 10 9 9 8 8 7 7 7
13 12 12 11 10 10 9 9 8 8 8 7 7 6 6 6 6 6 6 6 6 6 6 6 6 6 6 6 6 6 6 6 6 6 6 6 6 7 7 7 7 8 8 8 8 8 8 9 10 11 12 12 13 13 13 13 12 12 11 11 10 10 9 8 8 8 7 7 7
14 13 13 12 11 10 10 9 8 8 8 7 7 7 7 7 7 7 6 6 6 6 6 6 6 6 6 6 6 6 6 6 6 6 6 6 7 7 7 7 7 8 8 9 9 9 9 10 11 12 13 13 13 13 13 13 12 12 11 10 10 9 9 8 8 8 7 7 7
16 15 15 14 13 13 12 11 11 10 10 9 9 9 9 9 8 8 8 8 8 8 8 7 8 7 7 7 7 7 7 7 7 7 7 7 7 7 7 8 8 8 8 9 9 9 10 10 12 13 13 14 14 14 13 13 12 12 11 10 9 9 9 8 8 8 7 7 7
15 16 16 16 15 15 15 14 14 14 13 13 13 12 12 12 11 11 11 11 11 10 10 10 10 10 9 9 9 9 9 8 8 8 8 8 8 8 8 8 9 9 9 9 9 10 10 11 12 13 14 14 14 13 13 13 12 11 10 10 9 9 9 8 8 8 8 7 7
13 14 14 15 15 15 16 16 16 16 16 16 16 15 15 15 14 14 14 14 13 13 13 12 12 12 12 11 11 11 10 10 9 9 9 9 9 8 9 9 9 9 9 8 9 9 10 11 13 13 14 14 14 13 13 12 12 11 10 10 9 9 9 8 8 8 8 7 7
11 12 12 12 13 13 14 14 14 15 15 16 16 16 16 16 16 16 16 15 15 14 14 14 14 13 13 13 12 12 12 11 11 10 10 10 10 10 9 9 10 9 9 8 9 10 11 12 13 14 14 14 14 13 13 12 11 10 10 10 9 9 9 9 8 8 8 7 7
10 11 11 11 11 11 11 12 12 12 12 13 14 14 14 15 15 15 15 15 15 15 14 14 14 14 13 13 13 12 12 12 12 11 11 11 11 10 10 10 10 9 9 9 10 11 12 13 13 14 14 14 13 13 12 11 11 10 10 10 9 9 9 8 8 8 8 7 7
10 10 11 11 11 11 11 10 10 10 10 10 11 11 12 12 13 13 13 14 14 14 13 13 13 13 13 12 12 12 12 12 12 11 10 10 10 10 10 10 9 9 9 10 11 12 13 13 14 14 13 13 12 12 11 11 10 10 10 9 9 9 9 8 8 8 8 8 7
9 10 10 11 11 11 11 11 11 11 10 10 10 10 10 10 10 11 11 11 12 12 12 12 11 11 11 11 11 10 10 10 10 10 9 8 8 8 8 9 9 9 10 11 12 12 13 13 13 13 12 12 12 11 11 10 10 10 9 9 9 9 9 8 8 8 7 7 7
8 8 9 10 10 11 11 12 12 12 12 12 11 10 10 10 9 9 9 9 10 10 10 10 10 10 10 9 9 9 9 8 8 8 8 8 8 8 8 8 9 9 10 11 12 12 13 13 12 12 12 11 11 11 10 10 10 9 9 9 9 9 9 9 8 8 8 7 7
7 7 7 8 8 9 10 10 11 12 12 13 13 12 12 11 10 9 9 8 8 8 8 8 8 8 8 8 8 8 8 8 7 7 7 7 8 8 9 9 9 10 10 11 11 12 12 12 11 11 11 10 10 10 10 10 9 9 9 9 9 9 8 8 8 8 8 8 7
7 7 7 7 7 7 8 8 9 10 11 12 12 13 13 13 12 11 10 9 8 8 8 7 7 7 7 7 7 7 7 7 7 7 7 7 8 8 9 9 9 10 10 10 10 11 11 10 10 10 10 10 10 10 10 10 9 9 9 8 8 8 8 8 8 8 8 8 8
7 7 7 7 7 7 8 8 8 8 9 10 10 11 12 12 12 12 12 11 10 9 8 7 7 7 7 6 6 6 6 6 7 7 7 7 8 8 8 9 9 10 10 10 10 10 10 10 10 10 10 10 10 10 9 9 9 9 8 8 8 8 8 8 8 8 8 8 8
7 7 7 7 8 8 8 8 8 8 8 8 8 9 10 10 11 12 12 12 11 11 10 9 8 8 7 7 6 6 6 6 6 7 7 7 7 8 8 8 9 9 9 9 9 9 9 9 9 9 10 10 10 9 9 9 9 9 9 9 9 9 9 9 9 8 8 8 8
5 5 5 6 6 7 8 8 9 9 8 8 8 8 8 8 9 10 10 11 11 11 11 10 10 9 8 7 7 6 6 6 6 6 6 7 7 8 8 8 9 9 9 9 9 9 9 9 9 9 9 9 9 9 9 9 9 9 9 9 9 9 9 9 9 8 8 8 8
3 3 3 2 3 4 6 7 8 9 9 9 9 8 8 8 8 8 9 9 10 10 10 11 10 10 10 9 8 8 7 6 6 6 7 7 7 8 8 8 9 9 9 9 9 9 9 9 9 9 9 9 9 9 9 9 9 9 9 9 9 9 9 9 9 9 8 8 8
2 1 1 -0 0 2 3 5 6 7 8 9 10 9 9 8 7 7 8 8 8 8 9 10 10 10 10 10 10 10 9 8 8 8 8 8 8 8 8 8 8 9 9 9 9 9 9 9 9 9 9 9 9 9 9 9 9 9 9 9 9 9 9 9 9 9 8 8 8
1 1 -0 -1 -1 0 1 3 4 5 7 8 10 10 10 9 8 8 7 7 7 7 8 8 9 9 10 10 10 10 10 10 10 9 9 8 8 8 8 8 8 8 9 9 9 9 9 9 9 9 9 9 9 9 9 9 9 9 9 9 9 9 9 9 9 9 9 8 8
1 1 -0 -1 -1 -0 1 2 2 3 5 7 9 10 10 10 9 8 7 7 6 6 7 7 8 8 9 10 10 10 11 11 11 10 10 10 9 9 8 8 8 8 8 9 9 9 9 9 9 9 9 9 9 9 9 9 9 9 9 9 9 9 9 9 9 9 9 9 8
2 1 0 -0 -0 0 1 1 1 2 4 6 8 10 10 10 10 9 8 7 7 6 7 6 7 7 8 8 9 10 10 11 11 11 11 11 10 10 9 9 9 9 8 8 9 9 9 9 9 9 9 9 9 9 9 9 9 9 9 9 9 9 9 9 9 9 9 9 8
2 1 1 -0 -0 0 1 1 1 2 4 6 8 9 10 11 11 10 9 8 7 7 6 6 7 7 7 7 8 8 9 10 10 10 11 11 11 10 10 10 10 9 9 9 9 9 9 9 9 9 9 9 9 9 9 9 9 9 9 9 9 9 9 10 10 9 9 9 9
3 2 1 0 0 0 0 1 2 3 4 5 7 9 10 11 11 11 10 9 8 8 7 7 7 7 7 7 7 8 8 8 9 10 10 10 10 10 10 10 10 10 10 10 9 9 9 9 9 9 9 9 9 9 9 9 9 9 9 9 9 9 9 10 10 9 9 9 9
3 3 2 1 1 0 1 1 2 3 4 5 7 9 10 11 11 11 10 10 9 9 8 7 7 7 7 7 7 8 8 8 8 9 9 9 10 10 10 10 10 10 10 10 10 10 9 9 9 9 9 9 9 9 9 9 9 9 9 9 9 9 9 9 9 10 10 9 9
Height
3093 3093 3093 3092 3092 3092 3092 3092 3092 3092 3091 3091 3091 3090 3090 3090 3090 3090 3090 3089 3089 3089 3089 3089 3089 3089 3088 3088 3088 3088 3088 3087 3087 3087 3087 3087 3087 3087 3086 3086 3086 3085 3085 3085 3084 3084 3083 3083 3083 3083 3082 3082 3082 3082 3082 3081 3081 3080 3080 3080 3079 3079 3079 3078 3078 3078 3077 3077 3077
3091 3091 3091 3091 3091 3091 3090 3090 3090 3090 3090 3089 3089 3089 3089 3088 3088 3088 3088 3088 3088 3087 3087 3087 3087 3087 3087 3087 3087 3087 3086 3086 3086 3086 3085 3085 3085 3085 3084 3084 3084 3084 3083 3083 3082 3082 3082 3082 3081 3081 3081 3081 3081 3080 3080 3079 3079 3078 3078 3078 3078 3077 3077 3077 3077 3076 3076 3076 3076
3090 3089 3089 3089 3089 3089 3089 3089 3088 3088 3088 3088 3087 3087 3087 3087 3087 3087 3087 3086 3086 3086 3086 3086 3086 3086 3085 3085 3085 3085 3085 3084 3084 3084 3084 3083 3083 3083 3082 3082 3082 3082 3082 3081 3081 3081 3080 3080 3079 3079 3079 3079 3079 3078 3078 3077 3077 3077 3077 3076 3076 3076 3075 3075 3075 3075 3074 3074 3074
3088 3088 3087 3087 3087 3087 3087 3087 3087 3087 3087 3086 3086 3086 3086 3085 3085 3085 3085 3085 3085 3084 3084 3084 3084 3084 3084 3084 3083 3083 3083 3083 3082 3082 3082 3082 3082 3081 3081 3081 3080 3080 3080 3079 3079 3079 3078 3078 3078 3077 3077 3077 3077 3077 3076 3076 3075 3075 3075 3074 3074 3074 3074 3073 3073 3073 3073 3072 3072
3086 3086 3086 3086 3086 3085 3085 3085 3085 3085 3085 3085 3084 3084 3084 3084 3084 3083 3083 3083 3083 3083 3082 3082 3082 3082 3082 3082 3082 3081 3081 3081 3081 3081 3080 3080 3080 3079 3079 3079 3078 3078 3078 3077 3077 3077 3077 3077 3076 3076 3076 3075 3075 3075 3074 3074 3074 3073 3073 3073 3072 3072 3072 3072 3072 3071 3071 3071 3071
3084 3084 3084 3084 3084 3083 3083 3083 3083 3083 3083 3083 3083 3083 3082 3082 3082 3082 3082 3082 3081 3081 3081 3081 3081 3080 3080 3080 3080 3080 3079 3079 3079 3079 3078 3078 3078 3077 3077 3077 3077 3076 3076 3076 3075 3075 3075 3075 3074 3074 3074 3073 3073 3073 3072 3072 3072 3072 3071 3071 3071 3070 3070 3070 3070 3070 3069 3069 3068
3082 3082 3082 3082 3082 3082 3082 3082 3082 3081 3081 3081 3081 3081 3081 3081 3081 3080 3080 3080 3080 3079 3079 3079 3079 3078 3078 3078 3078 3078 3077 3077 3077 3077 3076 3076 3076 3076 3075 3075 3075 3074 3074 3074 3074 3073 3073 3073 3072 3072 3072 3072 3071 3071 3071 3070 3070 3070 3069 3069 3069 3069 3068 3068 3068 3068 3067 3067 3067
3081 3080 3080 3080 3080 3080 3080 3080 3079 3079 3079 3079 3079 3079 3079 3079 3079 3078 3078 3078 3078 3077 3077 3077 3077 3077 3077 3076 3076 3076 3076 3075 3075 3075 3074 3074 3074 3073 3073 3073 3073 3072 3072 3072 3072 3072 3071 3071 3071 3070 3070 3070 3069 3069 3069 3068 3068 3068 3067 3067 3067 3067 3067 3066 3066 3066 3065 3065 3064
3078 3078 3078 3078 3078 3077 3077 3077 3077 3077 3077 3077 3077 3077 3077 3077 3077 3077 3077 3076 3076 3076 3076 3075 3075 3075 3074 3074 3074 3074 3073 3073 3073 3073 3072 3072 3072 3072 3071 3071 3071 3071 3070 3070 3070 3069 3069 3069 3069 3068 3068 3068 3067 3067 3067 3067 3066 3066 3066 3065 3065 3065 3065 3064 3064 3064 3063 3063 3062
3076 3076 3076 3076 3076 3076 3076 3076 3076 3076 3076 3076 3076 3076 3075 3075 3075 3075 3075 3074 3074 3074 3074 3073 3073 3073 3072 3072 3072 3072 3072 3071 3071 3071 3071 3070 3070 3070 3069 3069 3069 3069 3068 3068 3068 3067 3067 3067 3067 3066 3066 3066 3065 3065 3065 3065 3064 3064 3064 3064 3063 3063 3063 3062 3062 3062 3062 3061 3061
3074 3074 3074 3074 3073 3073 3073 3073 3073 3073 3074 3074 3073 3073 3073 3073 3073 3073 3073 3072 3072 3072 3072 3072 3071 3071 3071 3070 3070 3070 3070 3069 3069 3069 3069 3068 3068 3068 3067 3067 3067 3067 3067 3066 3066 3065 3065 3065 3065 3064 3064 3064 3063 3063 3063 3063 3062 3062 3062 3062 3062 3061 3061 3061 3060 3060 3060 3059 3059
3072 3072 3072 3072 3072 3072 3072 3072 3072 3072 3072 3072 3072 3071 3071 3071 3071 3071 3071 3070 3070 3070 3070 3069 3069 3069 3069 3068 3068 3068 3067 3067 3067 3067 3067 3067 3066 3066 3066 3065 3065 3065 3064 3064 3064 3063 3063 3063 3063 3062 3062 3062 3062 3061 3061 3061 3061 3060 3060 3060 3060 3059 3059 3059 3058 3058 3058 3057 3057
3070 3070 3070 3069 3069 3069 3069 3069 3069 3069 3069 3069 3069 3069 3069 3069 3069 3069 3068 3068 3068 3068 3067 3067 3067 3067 3067 3066 3066 3066 3066 3065 3065 3065 3065 3064 3064 3064 3063 3063 3063 3063 3062 3062 3062 3062 3061 3061 3061 3061 3060 3060 3060 3059 3059 3059 3059 3058 3058 3058 3058 3057 3057 3057 3057 3056 3056 3055 3055
3068 3067 3067 3067 3067 3067 3067 3067 3067 3067 3067 3067 3067 3067 3067 3067 3067 3067 3067 3066 3066 3066 3066 3065 3065 3065 3065 3064 3064 3064 3064 3063 3063 3063 3063 3062 3062 3062 3062 3061 3061 3061 3060 3060 3060 3059 3059 3059 3059 3059 3058 3058 3058 3057 3057 3057 3057 3057 3056 3056 3056 3056 3055 3055 3055 3054 3054 3053 3052
3066 3066 3065 3065 3065 3065 3065 3065 3065 3065 3065 3065 3065 3065 3065 3065 3065 3064 3064 3064 3064 3064 3063 3063 3063 3063 3062 3062 3062 3062 3062 3061 3061 3061 3061 3060 3060 3060 3060 3059 3059 3059 3058 3058 3058 3057 3057 3057 3057 3057 3057 3056 3056 3056 3055 3055 3055 3055 3054 3054 3054 3054 3053 3053 3053 3052 3052 3051 3050
3063 3063 3063 3063 3063 3063 3063 3063 3063 3063 3063 3063 3063 3063 3063 3062 3062 3062 3062 3062 3062 3062 3061 3061 3061 3061 3060 3060 3060 3060 3059 3059 3059 3059 3059 3058 3058 3058 3057 3057 3057 3057 3057 3056 3056 3056 3055 3055 3055 3055 3055 3054 3054 3054 3053 3053 3053 3053 3052 3052 3052 3052 3052 3051 3051 3050 3049 3049 3048
3061 3061 3061 3061 3061 3061 3061 3061 3061 3061 3061 3061 3061 3061 3061 3060 3060 3060 3060 3060 3060 3059 3059 3059 3059 3058 3058 3058 3058 3057 3057 3057 3057 3057 3057 3056 3056 3056 3056 3055 3055 3055 3054 3054 3054 3054 3053 3053 3053 3053 3052 3052 3052 3052 3051 3051 3051 3051 3051 3050 3050 3050 3050 3049 3049 3048 3047 3047 3046
3059 3059 3059 3059 3059 3059 3059 3059 3059 3059 3059 3059 3059 3059 3058 3058 3058 3058 3058 3057 3057 3057 3057 3057 3057 3056 3056 3056 3056 3055 3055 3055 3055 3054 3054 3054 3054 3054 3053 3053 3053 3052 3052 3052 3052 3052 3052 3051 3051 3051 3050 3050 3050 3050 3049 3049 3049 3049 3049 3048 3048 3048 3048 3047 3047 3046 3045 3044 3043
3057 3057 3057 3057 3057 3057 3057 3057 3057 3057 3057 3057 3057 3057 3056 3056 3056 3056 3056 3055 3055 3055 3055 3054 3054 3054 3054 3053 3053 3053 3053 3052 3052 3052 3052 3052 3052 3051 3051 3051 3051 3050 3050 3050 3050 3050 3049 3049 3049 3049 3048 3048 3048 3047 3047 3047 3047 3047 3047 3047 3047 3046 3046 3045 3044 3043 3043 3042 3042
3056 3055 3055 3055 3055 3055 3055 3055 3055 3055 3055 3054 3054 3054 3054 3054 3054 3053 3053 3053 3053 3052 3052 3052 3052 3052 3051 3051 3051 3051 3051 3050 3050 3050 3050 3049 3049 3049 3049 3049 3048 3048 3048 3048 3047 3047 3047 3047 3047 3047 3046 3046 3046 3046 3045 3045 3045 3045 3045 3045 3044 3044 3043 3042 3042 3041 3041 3040 3039
3054 3053 3053 3053 3053 3053 3053 3053 3053 3052 3052 3052 3052 3052 3052 3052 3052 3051 3051 3051 3050 3050 3050 3050 3049 3049 3049 3049 3048 3048 3048 3048 3048 3047 3047 3047 3047 3047 3047 3047 3046 3046 3046 3045 3045 3045 3045 3045 3044 3044 3044 3044 3044 3044 3043 3043 3043 3043 3043 3042 3042 3042 3041 3040 3040 3039 3038 3037 3037
3052 3052 3052 3052 3051 3051 3051 3051 3051 3050 3050 3050 3050 3050 3049 3049 3049 3049 3048 3048 3048 3047 3047 3047 3047 3047 3047 3046 3046 3046 3046 3046 3045 3045 3045 3045 3045 3044 3044 3044 3044 3044 3043 3043 3043 3043 3042 3042 3042 3042 3042 3042 3042 3042 3042 3041 3041 3041 3041 3040 3040 3039 3039 3038 3037 3037 3036 3035 3034
3051 3050 3050 3050 3050 3049 3049 3049 3048 3048 3048 3048 3047 3047 3047 3047 3047 3046 3046 3046 3045 3045 3045 3045 3044 3044 3044 3044 3044 3044 3043 3043 3043 3043 3043 3042 3042 3042 3042 3042 3042 3041 3041 3041 3040 3040 3040 3040 3040 3040 3040 3040 3040 3039 3039 3039 3039 3039 3038 3038 3037 3037 3037 3036 3035 3034 3033 3033 3032
3049 3049 3048 3048 3048 3047 3047 3047 3047 3046 3046 3046 3046 3045 3045 3045 3044 3044 3044 3043 3043 3043 3042 3042 3042 3042 3042 3042 3042 3041 3041 3041 3041 3041 3040 3040 3040 3040 3039 3039 3039 3039 3038 3038 3038 3038 3038 3038 3038 3038 3037 3037 3037 3037 3037 3037 3037 3037 3036 3036 3035 3035 3034 3033 3032 3032 3031 3030 3030
3047 3047 3047 3046 3046 3046 3045 3045 3045 3044 3044 3044 3044 3043 3043 3043 3042 3042 3042 3041 3041 3041 3040 3040 3040 3040 3039 3039 3039 3039 3039 3039 3038 3038 3038 3038 3037 3037 3037 3037 3036 3036 3036 3036 3036 3036 3036 3036 3036 3035 3035 3035 3035 3035 3035 3035 3035 3034 3034 3033 3033 3032 3032 3031 3030 3029 3028 3028 3027
3046 3045 3045 3045 3044 3044 3043 3043 3043 3042 3042 3042 3042 3042 3041 3041 3040 3040 3040 3039 3039 3039 3038 3038 3038 3037 3037 3037 3037 3037 3037 3036 3036 3036 3036 3035 3035 3035 3035 3034 3034 3033 3033 3033 3033 3033 3033 3033 3033 3033 3033 3033 3033 3033 3033 3032 3032 3032 3032 3031 3030 3030 3029 3028 3027 3027 3026 3025 3024
3044 3044 3043 3043 3042 3042 3042 3042 3041 3041 3041 3040 3040 3040 3039 3039 3039 3038 3038 3037 3037 3037 3037 3036 3036 3036 3035 3035 3035 3034 3034 3034 3033 3033 3033 3033 3032 3032 3032 3032 3032 3031 3031 3031 3031 3031 3031 3031 3031 3031 3031 3031 3031 3031 3031 3030 3030 3029 3029 3028 3028 3027 3027 3026 3025 3024 3023 3023 3022
3042 3042 3042 3041 3041 3041 3040 3040 3039 3039 3039 3038 3038 3038 3037 3037 3037 3037 3036 3036 3035 3035 3035 3034 3034 3033 3033 3033 3032 3032 3032 3032 3031 3031 3030 3030 3030 3030 3030 3030 3029 3029 3029 3029 3029 3029 3029 3029 3029 3029 3029 3029 3029 3028 3028 3028 3027 3027 3027 3026 3025 3025 3024 3023 3022 3022 3021 3020 3019
3041 3041 3040 3040 3039 3039 3038 3038 3038 3037 3037 3037 3036 3036 3036 3035 3035 3034 3034 3034 3033 3033 3032 3032 3032 3031 3031 3031 3030 3030 3029 3029 3028 3028 3028 3028 3027 3027 3027 3027 3027 3027 3027 3027 3027 3027 3027 3026 3026 3026 3026 3026 3026 3026 3026 3025 3025 3024 3024 3023 3022 3022 3021 3021 3020 3019 3018 3018 3017
3039 3039 3038 3038 3038 3037 3037 3037 3036 3036 3035 3035 3034 3034 3034 3033 3033 3032 3032 3032 3031 3031 3030 3030 3030 3029 3029 3028 3028 3027 3027 3027 3026 3026 3026 3025 3025 3025 3025 3025 3025 3025 3025 3025 3025 3024 3024 3024 3024 3024 3024 3024 3024 3023 3023 3023 3022 3022 3021 3021 3020 3019 3019 3018 3017 3017 3016 3015 3014
3037 3037 3037 3037 3036 3036 3035 3035 3034 3034 3033 3033 3032 3032 3032 3031 3031 3030 3030 3029 3029 3028 3028 3028 3027 3027 3026 3026 3025 3025 3024 3024 3024 3023 3023 3023 3023 3023 3023 3023 3023 3023 3022 3022 3022 3022 3022 3022 3022 3022 3021 3021 3021 3021 3021 3020 3020 3019 3019 3018 3017 3017 3016 3015 3015 3014 3013 3012 3012
3036 3035 3035 3035 3034 3034 3033 3033 3032 3032 3032 3031 3031 3030 3029 3029 3028 3028 3027 3027 3027 3026 3026 3025 3025 3024 3024 3023 3023 3022 3022 3022 3022 3021 3021 3021 3021 3021 3021 3021 3021 3021 3020 3020 3020 3020 3019 3019 3019 3019 3019 3019 3019 3018 3018 3017 3017 3017 3016 3015 3015 3014 3013 3013 3012 3011 3011 3010 3009
3034 3033 3033 3033 3032 3032 3031 3031 3030 3030 3029 3029 3028 3028 3027 3027 3026 3026 3025 3025 3024 3024 3023 3023 3022 3022 3022 3021 3021 3020 3020 3020 3019 3019 3019 3019 3019 3019 3019 3019 3018 3018 3018 3017 3017 3017 3017 3017 3017 3017 3017 3016 3016 3016 3015 3015 3014 3014 3013 3012 3012 3011 3011 3010 3009 3009 3008 3007 3006
3032 3031 3031 3031 3030 3030 3029 3029 3028 3027 3027 3027 3026 3025 3025 3024 3024 3023 3022 3022 3022 3021 3021 3020 3020 3019 3019 3019 3018 3018 3018 3017 3017 3017 3017 3017 3017 3017 3017 3017 3016 3016 3015 3015 3015 3015 3015 3014 3014 3014 3014 3014 3013 3013 3012 3012 3012 3011 3011 3010 3009 3009 3008 3007 3007 3006 3005 3004 3004
3029 3029 3028 3028 3028 3027 3027 3026 3026 3025 3025 3024 3023 3023 3022 3022 3021 3021 3020 3020 3019 3019 3018 3018 3017 3017 3017 3016 3016 3016 3016 3016 3015 3015 3015 3015 3015 3014 3014 3014 3014 3013 3013 3013 3012 3012 3012 3012 3012 3012 3012 3011 3011 3010 3010 3009 3009 3008 3008 3007 3007 3006 3005 3005 3004 3003 3002 3002 3001
3027 3026 3026 3026 3025 3024 3024 3023 3023 3022 3022 3022 3021 3020 3020 3019 3018 3018 3017 3017 3017 3016 3016 3015 3015 3014 3014 3014 3014 3014 3013 3013 3013 3013 3012 3012 3012 3012 3012 3012 3012 3011 3011 3011 3010 3010 3010 3010 3009 3009 3009 3008 3008 3007 3007 3007 3006 3006 3005 3005 3004 3003 3003 3002 3001 3001 3000 2999 2998
3024 3024 3023 3023 3022 3022 3021 3020 3020 3020 3019 3019 3018 3017 3017 3016 3016 3015 3015 3014 3014 3013 3013 3013 3012 3012 3012 3012 3012 3011 3011 3011 3011 3011 3010 3010 3010 3010 3009 3009 3009 3009 3009 3008 3008 3008 3007 3007 3007 3006 3006 3006 3005 3005 3004 3004 3003 3003 3002 3002 3001 3001 3000 2999 2999 2998 2997 2996 2995
3021 3021 3021 3020 3019 3019 3018 3017 3017 3017 3016 3016 3015 3015 3014 3014 3013 3013 3012 3012 3011 3011 3011 3010 3010 3010 3010 3009 3009 3009 3009 3008 3008 3008 3008 3007 3007 3007 3007 3007 3007 3007 3006 3006 3006 3005 3005 3004 3004 3003 3003 3003 3002 3002 3002 3001 3001 3000 3000 2999 2999 2998 2997 2997 2996 2995 2994 2993 2992
3018 3018 3018 3017 3017 3016 3015 3015 3014 3014 3013 3013 3012 3012 3012 3011 3011 3010 3009 3009 3009 3008 3008 3008 3007 3007 3007 3007 3007 3007 3006 3006 3006 3005 3005 3005 3005 3004 3004 3004 3004 3004 3004 3003 3003 3003 3002 3002 3001 3001 3000 3000 2999 2999 2999 2998 2998 2997 2997 2997 2996 2995 2995 2994 2993 2993 2992 2991 2990
3016 3015 3015 3014 3014 3013 3012 3012 3011 3011 3011 3010 3010 3009 3009 3008 3008 3007 3007 3007 3006 3006 3006 3005 3005 3005 3004 3004 3004 3004 3004 3003 3003 3003 3002 3002 3002 3002 3002 3002 3002 3001 3001 3001 3000 3000 2999 2999 2998 2998 2997 2997 2997 2996 2996 2996 2995 2995 2994 2994 2993 2993 2992 2992 2991 2990 2989 2988 2987
3012 3012 3012 3011 3011 3010 3009 3009 3008 3008 3008 3007 3007 3007 3006 3006 3005 3005 3004 3004 3003 3003 3003 3002 3002 3002 3002 3002 3002 3002 3001 3001 3001 3000 3000 3000 3000 2999 2999 2999 2999 2998 2998 2997 2997 2997 2997 2996 2995 2995 2994 2994 2993 2993 2993 2992 2992 2992 2991 2991 2991 2990 2990 2989 2988 2988 2987 2986 2985